Weather History for Pula, Croatia

Change the Weather History Date:

Saturday, October 27, 2012

  Actual Average Record
Temperature  
Mean Temperature 64 °F -  
Max Temperature 68 °F - - ()
Min Temperature 60 °F - - ()
Degree Days  
Heating Degree Days 1    
Growing Degree Days 14 (Base 50)    
Moisture  
Dew Point 59 °F    
Average Humidity 87    
Maximum Humidity 100    
Minimum Humidity 66    
Precipitation  
Precipitation 0.31 in - - ()
Sea Level Pressure  
Sea Level Pressure 29.25 in    
Wind  
Wind Speed 6 mph ()    
Max Wind Speed 14 mph    
Max Gust Speed 25 mph    
Visibility 6.3 miles    
Events Rain , Thunderstorm    
T = Trace of Precipitation, MM = Missing Value Source: Averaged Metar Reports

Daily Weather History Graph

Daily Weather History Graph

Search for Another Location

Airport:

Trip Planner

Search our weather history database for the weather conditions in past years. The results will help you decide how hot, cold, wet, or windy it might be!

Date:

Astronomy

Oct. 27, 2012 Rise Set
Actual Time 7:36 AM CEST 5:59 PM CEST
Civil Twilight 7:05 AM CEST 6:29 PM CEST
Nautical Twilight 6:31 AM CEST 7:04 PM CEST
Astronomical Twilight 5:57 AM CEST 7:37 PM CEST
Moon 4:40 PM CEST (10/27) 5:09 AM CEST (10/27)
Length of Visible Light 11h 23m
Length of Day
10h 23m
Waxing Gibbous, 95% of the Moon is Illuminated
Oct 27
Waxing Gibbous
Oct 29
Full
Nov 7
Last Quarter
Nov 13
New
Nov 20
First Quarter

Hourly Weather History & Observations

Time (CEST) Temp. Dew Point Humidity Pressure Visibility Wind Dir Wind Speed Gust Speed Precip Events Conditions
12:00 AM 64.4 °F 60.8 °F 88% 29.47 in 4.3 mi Variable 13.8 mph 25.3 mph N/A Rain , Thunderstorm Rain Showers
12:30 AM 60.8 °F 59.0 °F 94% 29.47 in 6.2 mi SSW 6.9 mph - N/A Rain , Thunderstorm Thunderstorms and Rain
1:00 AM 62.6 °F 60.8 °F 94% 29.44 in 6.2 mi Variable 5.8 mph - N/A Rain Rain
1:30 AM 62.6 °F 60.8 °F 94% 29.44 in 6.2 mi SSW 4.6 mph - N/A Rain Rain
2:00 AM 61 °F 59 °F 92% 29.42 in 6 mi SSW 2.2 mph - - Rain Light Rain
2:00 AM 60.8 °F 59.0 °F 94% 29.42 in 6.2 mi Variable 2.3 mph - N/A Rain Light Rain
2:30 AM 60.8 °F 59.0 °F 94% 29.39 in 6.2 mi Variable 1.2 mph - N/A Rain Light Rain
3:00 AM 60.8 °F 59.0 °F 94% 29.39 in 6.2 mi Calm Calm - N/A   Mostly Cloudy
3:30 AM 60.8 °F 60.8 °F 100% 29.36 in 6.2 mi Variable 3.5 mph - N/A   Mostly Cloudy
4:00 AM 62.6 °F 60.8 °F 94% 29.33 in - Variable 4.6 mph - N/A   Clear
4:30 AM 62.6 °F 60.8 °F 94% 29.33 in 6.2 mi Variable 8.1 mph - N/A Rain Light Rain
5:00 AM 62 °F 60 °F 90% 29.32 in 6 mi NNW 8.9 mph - - Rain Light Rain
5:00 AM 62.6 °F 60.8 °F 94% 29.33 in 6.2 mi Variable 8.1 mph - N/A Rain Light Rain
5:30 AM 62.6 °F 60.8 °F 94% 29.30 in 6.2 mi South 9.2 mph 24.2 mph N/A Rain Light Rain
6:00 AM 62 °F 60 °F 90% 29.29 in 6 mi SSE 6.7 mph - - Rain Light Rain
6:00 AM 60.8 °F 59.0 °F 94% 29.27 in 6.2 mi Variable 6.9 mph - N/A   Mostly Cloudy
6:30 AM 62.6 °F 60.8 °F 94% 29.27 in 6.2 mi Variable 6.9 mph - N/A   Mostly Cloudy
7:00 AM 63 °F 61 °F 92% 29.26 in 6 mi NNE 8.9 mph - - Rain Light Rain
7:00 AM 62.6 °F 60.8 °F 94% 29.27 in 6.2 mi Variable 8.1 mph - N/A Rain Light Rain
7:30 AM 62.6 °F 60.8 °F 94% 29.24 in 6.2 mi SSW 6.9 mph - N/A Rain Light Rain
8:00 AM 63 °F 61 °F 90% 29.25 in 6 mi South 6.7 mph - - Rain Light Rain
8:00 AM 62.6 °F 60.8 °F 94% 29.24 in 6.2 mi Variable 5.8 mph - N/A   Mostly Cloudy
8:30 AM 64.4 °F 60.8 °F 88% 29.24 in 6.2 mi Variable 6.9 mph - N/A   Scattered Clouds
9:00 AM 64.4 °F 60.8 °F 88% 29.24 in 6.2 mi Variable 8.1 mph - N/A   Scattered Clouds
9:30 AM 64.4 °F 60.8 °F 88% 29.24 in 6.2 mi Variable 8.1 mph - N/A   Scattered Clouds
10:00 AM 66.2 °F 59.0 °F 78% 29.24 in 6.2 mi SSW 9.2 mph - N/A   Scattered Clouds
10:30 AM 66.2 °F 59.0 °F 78% 29.24 in 6.2 mi SSW 9.2 mph - N/A   Scattered Clouds
11:00 AM 65 °F 58 °F 71% 29.25 in 9 mi SSW 8.9 mph - -   Partly Cloudy
11:00 AM 66.2 °F 57.2 °F 73% 29.24 in 6.2 mi SSW 9.2 mph - N/A   Scattered Clouds
11:30 AM 66.2 °F 59.0 °F 78% 29.24 in 6.2 mi SSW 8.1 mph - N/A   Scattered Clouds
12:00 PM 66.2 °F 57.2 °F 73% 29.24 in 6.2 mi SSW 8.1 mph - N/A   Scattered Clouds
12:30 PM 64.4 °F 57.2 °F 77% 29.24 in 6.2 mi South 5.8 mph - N/A Rain Light Rain
1:00 PM 66.2 °F 60.8 °F 83% 29.21 in 6.2 mi Variable 3.5 mph - N/A   Scattered Clouds
1:30 PM 66.2 °F 59.0 °F 78% 29.21 in 6.2 mi Variable 5.8 mph - N/A   Scattered Clouds
2:00 PM 68 °F 59 °F 66% 29.19 in 9 mi SSE 4.5 mph - -   Partly Cloudy
2:00 PM 68.0 °F 59.0 °F 73% 29.18 in 6.2 mi Variable 4.6 mph - N/A   Scattered Clouds
2:30 PM 68.0 °F 57.2 °F 68% 29.18 in 6.2 mi Variable 8.1 mph - N/A   Scattered Clouds
3:00 PM 64.4 °F 59.0 °F 83% 29.18 in 5.0 mi Variable 10.4 mph 25.3 mph N/A Rain Rain
3:30 PM 62.6 °F 59.0 °F 88% 29.18 in 4.3 mi Variable 6.9 mph - N/A Rain Rain
4:00 PM 60.8 °F 59.0 °F 94% 29.18 in 4.3 mi Variable 6.9 mph - N/A Rain , Thunderstorm Thunderstorms and Rain
4:30 PM 60.8 °F 59.0 °F 94% 29.15 in 6.2 mi Variable 4.6 mph - N/A Rain Light Rain
5:00 PM 62 °F 60 °F 90% 29.17 in 6 mi NE 6.7 mph - - Rain Light Rain
5:00 PM 62.6 °F 59.0 °F 88% 29.15 in 6.2 mi Variable 5.8 mph - N/A Rain Light Rain
5:30 PM 62.6 °F 59.0 °F 88% 29.15 in 6.2 mi Variable 6.9 mph - N/A Rain Light Rain
6:00 PM 60.8 °F 59.0 °F 94% 29.15 in 6.2 mi Variable 4.6 mph - N/A   Scattered Clouds
6:30 PM 60.8 °F 59.0 °F 94% 29.15 in 6.2 mi Variable 2.3 mph - N/A   Scattered Clouds
7:00 PM 62.6 °F 59.0 °F 88% 29.15 in 6.2 mi Variable 4.6 mph - N/A   Scattered Clouds
7:30 PM 62.6 °F 60.8 °F 94% 29.18 in 6.2 mi Variable 4.6 mph - N/A   Scattered Clouds
8:00 PM 63 °F 59 °F 83% 29.19 in 6 mi South 4.5 mph - -   Partly Cloudy
8:00 PM 62.6 °F 59.0 °F 88% 29.18 in 6.2 mi Variable 4.6 mph - N/A   Scattered Clouds
8:30 PM 64.4 °F 59.0 °F 83% 29.18 in 6.2 mi Variable 4.6 mph - N/A   Partly Cloudy
9:00 PM 64.4 °F 59.0 °F 83% 29.18 in 6.2 mi Variable 5.8 mph - N/A   Partly Cloudy
9:30 PM 64.4 °F 59.0 °F 83% 29.18 in - Variable 4.6 mph - N/A   Clear
10:00 PM 64.4 °F 59.0 °F 83% 29.18 in - Variable 5.8 mph - N/A   Clear
10:30 PM 64.4 °F 59.0 °F 83% 29.21 in - Variable 4.6 mph - N/A   Clear
11:00 PM 64 °F 58 °F 76% 29.21 in 12 mi SSW 4.5 mph - -   Mostly Cloudy
11:00 PM 64.4 °F 59.0 °F 83% 29.21 in - Variable 4.6 mph - N/A   Clear
11:30 PM 64.4 °F 59.0 °F 83% 29.21 in - Variable 4.6 mph - N/A   Clear